Regional Weather Roundup
Issued by NWS Columbia, SC

Home | Current Version | Previous Version | Text Only | Print | Product List | Glossary On
Versions: 1 2 3 4 5 6 7 8 9 10 11 12 13 14 15 16 17 18 19 20 21 22 23 24 25 26 27 28 29 30 31 32 33 34 35 36 37 38 39 40 41 42 43 44 45 46 47 48 49 50
000
ASUS42 KCAE 271710
RWRCAE
REGIONAL WEATHER ROUNDUP
NATIONAL WEATHER SERVICE COLUMBIA SC
100 PM EDT FRI MAR 27 2015

NOTE: "FAIR" INDICATES FEW OR NO CLOUDS BELOW 12,000 FEET WITH NO
SIGNIFICANT WEATHER AND/OR OBSTRUCTIONS TO VISIBILITY.

NOT ALL STATIONS ARE QUALITY CONTROLLED BY THE NATIONAL
WEATHER SERVICE. USE DATA WITH CAUTION...ESPECIALLY
DEWPOINT OBSERVATIONS.

SCZ001>056-GAZ040-063>065-077-271800-
...UPSTATE SOUTH CAROLINA...

CITY           SKY/WX    TMP DP  RH WIND       PRES   REMARKS
ANDERSON       LGT RAIN  51  47  86 NE8       29.76R
LIBERTY        RAIN      49  46  88 NE7       29.76S
SPARTANBURG    LGT RAIN  50  50 100 NE9       29.77S
CLEMSON        CLOUDY    52  46  80 E7        29.77S
GREENVILLE     CLOUDY    52  40  63 NE10      29.76S
GREENWOOD      LGT RAIN  51  48  89 NE13      29.76S FOG
GREER          CLOUDY    48  44  86 NE12      29.76S
ROCK HILL      CLOUDY    48  42  80 NE12      29.77R
CHESTER        CLOUDY    52  46  82 N10G16    29.77S
LAURENS        CLOUDY    48  48 100 NE6       29.76R


...CENTRAL SOUTH CAROLINA...

CITY           SKY/WX    TMP DP  RH WIND       PRES   REMARKS
COLUMBIA APT   LGT RAIN  56  51  84 N7        29.71S
COLUMBIA OWENS LGT RAIN  56  51  84 VRB5      29.72S
DARLINGTON     CLOUDY    52  46  82 N13       29.73S
FLORENCE       TSTM      54  51  90 N12       29.70F
MCENTIRE ANGB  LGT RAIN  57  52  82 N12G21    29.70S
ORANGEBURG     CLOUDY    71  58  63 SW15G25   29.66F
SUMTER SHAW    LGT RAIN  55  52  91 N12       29.68F
NEWBERRY       CLOUDY    52  46  82 N13G21    29.77F
AIKEN          CLOUDY    61  54  77 NW9       29.74S
BARNWELL       PTSUNNY   72  59  64 SW14      29.68F
MANNING        PTSUNNY   68  57  68 SW9G17    29.66F
CAMDEN         CLOUDY    52  48  87 N15       29.73S
LANCASTER      CLOUDY    48  46  93 NE12      29.76S
WINNSBORO      CLOUDY    52  48  87 N12G18    29.73S


...EASTERN AND COASTAL SOUTH CAROLINA...

CITY           SKY/WX    TMP DP  RH WIND       PRES   REMARKS
MYRTLE BEACH   PTSUNNY   72  61  68 S12       29.68S
N MYRTLE BCH   CLOUDY    65  59  81 S15       29.64F
CONWAY         PTSUNNY   70  61  73 SW13      29.65F HAZE
MARION         RAIN      55  54  94 NW12G17   29.71R
HARTSVILLE     CLOUDY    50  46  87 N9        29.72S
FLORENCE       TSTM      54  51  90 N12       29.70F
DARLINGTON     CLOUDY    52  46  82 N13       29.73S
CHARLESTON APT CLOUDY    71  60  68 SW14      29.69F
MOUNT PLEASANT FAIR      72  61  68 SW12G21   29.68F
WALTERBORO     CLOUDY    70  61  73 SW9G16    29.70S
BEAUFORT       CLOUDY    72  61  68 SW15G21   29.70F


...EASTERN GEORGIA...

CITY           SKY/WX    TMP DP  RH WIND       PRES   REMARKS
AUGUSTA BUSH F CLOUDY    65  54  67 W15       29.72R
AUGUSTA DANIEL CLOUDY    63  53  70 W8G17     29.73S
THOMSON        PTSUNNY   63  53  69 W13G18    29.79S
WASHINGTON     PTSUNNY   61  52  72 W14G20    29.76S
CLAXTON        PTSUNNY   70  63  78 W8        29.73S
SYLVANIA       LGT RAIN  65  64  96 W7        29.71F
STATESBORO     LGT RAIN  65  65 100 W13G18    29.72S
SAVANNAH       CLOUDY    73  60  63 SW15G22   29.72F


...SOUTHERN NORTH CAROLINA...

CITY           SKY/WX    TMP DP  RH WIND       PRES   REMARKS
CHARLOTTE      CLOUDY    48  40  73 N12G20    29.77S
MONROE         CLOUDY    48  42  80 N14G24    29.76R
WADESBORO      CLOUDY    49  46  90 N10       29.75S
ROCKINGHAM     DRIZZLE   49  46  89 N9        29.74R
RUTHERFORDTON  CLOUDY    49  40  70 NE5       29.78S
ASHEVILLE      CLOUDY    46  33  60 N18G26    29.77F

$$



USA.gov is the U.S. government's official web portal to all federal, state and local government web resources and services.